EW7645 Weather Reports


time (UTC)temp
C
wind
direction
speed
KPH
gust
KPH
rain 1hr
cm
rain 24hr
cm
rain mn
cm
humidity
%
barometer
mb
20260906223017 33 90 4.8 19.3 0.00 0.00 0.00 31 1015.4
20260906222037 34 90 8.0 19.3 0.00 0.00 0.00 29 1015.8
20260906221017 34 90 11.3 24.1 0.00 0.00 0.00 28 1016.0
20260906220017 34 90 4.8 14.5 0.00 0.00 0.00 29 1016.1
20260906215016 34 68 3.2 9.7 0.00 0.00 0.00 29 1016.2
20260906214036 34 68 8.0 14.5 0.00 0.00 0.00 29 1016.4
20260906213017 35 68 8.0 20.9 0.00 0.00 0.00 27 1016.8
20260906212017 35 90 3.2 9.7 0.00 0.00 0.00 29 1016.7
20260906211016 34 23 4.8 12.9 0.00 0.00 0.00 28 1016.6
20260906210037 34 68 1.6 9.7 0.00 0.00 0.00 29 1017.3
20260906205017 34 90 4.8 12.9 0.00 0.00 0.00 29 1017.3
20260906204037 34 90 3.2 11.3 0.00 0.00 0.00 31 1017.8
20260906203036 33 90 4.8 11.3 0.00 0.00 0.00 30 1017.8
20260906202017 33 0 3.2 12.9 0.00 0.00 0.00 30 1018.0
20260906201037 33 90 4.8 14.5 0.00 0.00 0.00 30 1018.1
20260906200017 33 0 4.8 14.5 0.00 0.00 0.00 29 1018.5
20260906195017 33 23 4.8 12.9 0.00 0.00 0.00 29 1018.2
20260906194017 32 23 4.8 14.5 0.00 0.00 0.00 30 1018.4
20260906193017 32 45 4.8 14.5 0.00 0.00 0.00 32 1018.7
20260906192037 31 90 3.2 16.1 0.00 0.00 0.00 31 1018.8
20260906191036 31 90 3.2 11.3 0.00 0.00 0.00 36 1018.8
20260906190036 31 0 3.2 12.9 0.00 0.00 0.00 35 1019.1
20260906185037 30 23 4.8 11.3 0.00 0.00 0.00 37 1019.5
20260906184037 30 23 3.2 12.9 0.00 0.00 0.00 39 1019.5
20260906183017 30 23 4.8 14.5 0.00 0.00 0.00 37 1019.9
20260906182017 29 23 3.2 11.3 0.00 0.00 0.00 40 1019.9
20260906181037 28 90 1.6 4.8 0.00 0.00 0.00 43 1020.2
20260906180017 28 338 1.6 6.4 0.00 0.00 0.00 41 1020.7
20260906175017 28 0.0 4.8 0.00 0.00 0.00 42 1021.0
20260906174017 28 0 3.2 8.0 0.00 0.00 0.00 40 1020.7
20260906173017 27 0.0 3.2 0.00 0.00 0.00 41 1020.6
20260906172016 27 315 1.6 4.8 0.00 0.00 0.00 43 1020.9
20260906171037 26 90 1.6 8.0 0.00 0.00 0.00 42 1020.6
20260906170017 26 0 1.6 6.4 0.00 0.00 0.00 47 1020.5
20260906165037 25 90 4.8 11.3 0.00 0.00 0.00 50 1020.4
20260906164017 23 23 1.6 6.4 0.00 0.00 0.00 51 1020.0
20260906163017 23 0.0 3.2 0.00 0.00 0.00 53 1019.8
20260906162036 22 0.0 6.4 0.00 0.00 0.00 56 1019.4
20260906161017 21 90 1.6 6.4 0.00 0.00 0.00 60 1019.1
20260906160017 20 23 3.2 6.4 0.00 0.00 0.00 62 1019.2
20260906155016 20 0 1.6 8.0 0.00 0.00 0.00 63 1019.1
20260906154037 19 0.0 4.8 0.00 0.00 0.00 65 1018.7
20260906153017 19 0.0 4.8 0.00 0.00 0.00 71 1019.2
20260906152017 18 0.0 6.4 0.00 0.00 0.00 71 1019.3
20260906151017 18 0.0 0.0 0.00 0.00 0.00 71 1019.0
20260906150017 17 0.0 3.2 0.00 0.00 0.00 69 1019.3
20260906145017 17 0.0 1.6 0.00 0.00 0.00 75 1018.9
20260906144017 16 0.0 4.8 0.00 0.00 0.00 76 1018.9
20260906143017 16 0.0 0.0 0.00 0.00 0.00 78 1019.0
20260906142017 15 0.0 0.0 0.00 0.00 0.00 81 1019.0
20260906141016 15 0.0 0.0 0.00 0.00 0.00 82 1018.7
20260906140017 14 0.0 0.0 0.00 0.00 0.00 83 1019.1
20260906135036 14 0.0 0.0 0.00 0.00 0.00 83 1019.0
20260906134016 14 0.0 0.0 0.00 0.00 0.00 82 1019.0
20260906133017 14 0.0 0.0 0.00 0.00 0.00 80 1019.7
20260906132017 14 0.0 0.0 0.00 0.00 0.00 79 1019.6
20260906131017 14 0.0 0.0 0.00 0.00 0.00 78 1019.3
20260906130017 14 0.0 0.0 0.00 0.00 0.00 78 1019.9
20260906125017 14 0.0 0.0 0.00 0.00 0.00 78 1019.7
20260906124017 14 0.0 0.0 0.00 0.00 0.00 78 1019.5
20260906123017 15 0.0 0.0 0.00 0.00 0.00 78 1020.0
20260906122017 15 0.0 0.0 0.00 0.00 0.00 77 1020.0
20260906121017 15 0.0 0.0 0.00 0.00 0.00 77 1020.0
20260906120017 15 0.0 0.0 0.00 0.00 0.00 76 1020.4
20260906115016 15 0.0 0.0 0.00 0.00 0.00 74 1020.5
20260906114017 15 0.0 0.0 0.00 0.00 0.00 75 1020.5
20260906113017 15 0.0 0.0 0.00 0.00 0.00 73 1021.2
20260906112017 15 0.0 0.0 0.00 0.00 0.00 73 1020.9
20260906111057 15 0.0 0.0 0.00 0.00 0.00 73 1020.9
20260906110017 16 0.0 0.0 0.00 0.00 0.00 72 1020.6
20260906105017 16 0.0 0.0 0.00 0.00 0.00 70 1020.8
20260906104037 16 0.0 0.0 0.00 0.00 0.00 70 1020.8
20260906103037 16 0.0 0.0 0.00 0.00 0.00 69 1020.9
20260906102017 16 0.0 0.0 0.00 0.00 0.00 69 1020.9
20260906101016 16 0.0 0.0 0.00 0.00 0.00 69 1020.6
20260906100017 16 0.0 0.0 0.00 0.00 0.00 68 1020.9
20260906095017 16 0.0 0.0 0.00 0.00 0.00 67 1021.0
20260906094037 16 0.0 0.0 0.00 0.00 0.00 67 1021.0
20260906093037 16 0.0 0.0 0.00 0.00 0.00 67 1020.7
20260906092017 17 0.0 0.0 0.00 0.00 0.00 66 1021.0
20260906091017 17 0.0 0.0 0.00 0.00 0.00 66 1020.9
20260906090017 17 0.0 0.0 0.00 0.00 0.00 65 1021.1
20260906085017 17 0.0 0.0 0.00 0.00 0.00 65 1021.1
20260906084016 17 0.0 0.0 0.00 0.00 0.00 63 1021.0
20260906083017 18 0.0 0.0 0.00 0.00 0.00 63 1020.9
20260906082017 18 0.0 0.0 0.00 0.00 0.00 62 1021.0
20260906081037 18 0.0 0.0 0.00 0.00 0.00 61 1021.5
20260906080057 19 0.0 0.0 0.00 0.00 0.00 60 1021.1
20260906075017 19 0.0 0.0 0.00 0.00 0.00 58 1021.0
20260906074017 19 0.0 0.0 0.00 0.00 0.00 57 1020.9
20260906073037 20 0.0 0.0 0.00 0.00 0.00 55 1020.9
20260906072016 20 0.0 0.0 0.00 0.00 0.00 55 1021.1
20260906071016 20 0.0 0.0 0.00 0.00 0.00 53 1021.0
20260906070017 21 0.0 3.2 0.00 0.00 0.00 53 1021.0
20260906065057 21 203 1.6 6.4 0.00 0.00 0.00 52 1021.0
20260906064017 21 180 3.2 6.4 0.00 0.00 0.00 51 1021.2
20260906063037 21 203 1.6 4.8 0.00 0.00 0.00 50 1021.1
20260906062017 22 315 1.6 4.8 0.00 0.00 0.00 50 1021.2
20260906061017 22 270 1.6 4.8 0.00 0.00 0.00 49 1021.8
20260906060017 22 225 1.6 6.4 0.00 0.00 0.00 48 1021.8
20260906055017 22 0.0 1.6 0.00 0.00 0.00 46 1021.8
20260906054017 23 0.0 0.0 0.00 0.00 0.00 45 1021.6
20260906053016 23 0.0 0.0 0.00 0.00 0.00 44 1021.3
20260906052037 23 270 1.6 8.0 0.00 0.00 0.00 44 1021.3
20260906051017 22 315 1.6 4.8 0.00 0.00 0.00 43 1020.6
20260906050017 22 270 6.4 16.1 0.00 0.00 0.00 42 1020.2
20260906045017 22 315 1.6 4.8 0.00 0.00 0.00 43 1020.1
20260906044037 22 270 1.6 4.8 0.00 0.00 0.00 44 1020.4
20260906043017 22 270 3.2 9.7 0.00 0.00 0.00 45 1019.1
20260906042017 21 0.0 0.0 0.00 0.00 0.00 47 1018.9
20260906041017 21 0.0 0.0 0.00 0.00 0.00 47 1018.6
20260906040037 21 180 3.2 9.7 0.00 0.00 0.00 51 1018.0
20260906035017 21 0.0 0.0 0.00 0.00 0.00 47 1017.4
20260906034017 22 0.0 0.0 0.00 0.00 0.00 46 1017.0
20260906033037 22 0.0 0.0 0.00 0.00 0.00 46 1016.5
20260906032017 22 0.0 0.0 0.00 0.00 0.00 46 1016.8
20260906031017 23 0.0 0.0 0.00 0.00 0.00 42 1016.6
20260906030037 23 0.0 0.0 0.00 0.00 0.00 41 1015.9
20260906025017 23 0.0 0.0 0.00 0.00 0.00 42 1015.7
20260906024017 24 0.0 0.0 0.00 0.00 0.00 43 1016.0
20260906023017 24 0.0 0.0 0.00 0.00 0.00 40 1014.6
20260906022017 25 0.0 0.0 0.00 0.00 0.00 39 1014.6
20260906021037 25 0.0 0.0 0.00 0.00 0.00 37 1014.9
20260906020017 26 0.0 0.0 0.00 0.00 0.00 37 1014.5
20260906015017 26 0.0 0.0 0.00 0.00 0.00 36 1014.7
20260906014017 27 0.0 0.0 0.00 0.00 0.00 35 1014.6
20260906013037 27 0.0 0.0 0.00 0.00 0.00 33 1014.5
20260906012017 28 0.0 0.0 0.00 0.00 0.00 32 1014.4
20260906011017 28 0.0 0.0 0.00 0.00 0.00 29 1014.6
20260906010017 30 0.0 0.0 0.00 0.00 0.00 28 1014.9
20260906005017 30 0.0 0.0 0.00 0.00 0.00 27 1015.4
20260906004017 31 0.0 0.0 0.00 0.00 0.00 26 1015.3
20260906003016 31 0.0 0.0 0.00 0.00 0.00 23 1015.5
20260906002017 31 23 1.6 4.8 0.00 0.00 0.00 22 1015.4
20260906001017 32 23 3.2 8.0 0.00 0.00 0.00 22 1015.7
20260906000017 32 315 1.6 8.0 0.00 0.00 0.00 22 1015.6
20260905235037 32 0 3.2 8.0 0.00 0.00 0.00 21 1015.5
20260905234017 33 0 3.2 8.0 0.00 0.00 0.00 21 1015.9
20260905233017 33 0 3.2 9.7 0.00 0.00 0.00 21 1015.9
20260905232017 33 0 8.0 16.1 0.00 0.00 0.00 20 1016.2
20260905231037 34 23 4.8 8.0 0.00 0.00 0.00 19 1016.2
20260905230017 35 315 4.8 12.9 0.00 0.00 0.00 19 1016.6
20260905225037 35 315 3.2 8.0 0.00 0.00 0.00 19 1016.5
20260905224017 35 23 3.2 11.3 0.00 0.00 0.00 19 1016.5